Home   Weather   Shreveport   Past weeks

Flag for USA Past Weather in Shreveport, Louisiana, USA — Yesterday and Last 2 Weeks

Now
74 °F

Overcast.


Feels Like: 74 °F
Forecast: 57 / 77 °F
Wind: 16 mph from South

Location: Shreveport Regional Airport

Current Time: Apr 25, 2017 at 11:38:37 pm

Latest Report: Apr 25, 2017 at 10:56 pm


Visibility: 10 mi

Pressure: 29.57 "Hg

Humidity: 79%

Dew Point: 67 °F

Location of ShreveportLocation

Past Weather in Shreveport — Graph

°F

Shreveport Temperature Yesterday

Maximum temperature yesterday: 79 °F (at 3:56 pm)
Minimum temperature yesterday: 46 °F (at 6:56 am)
Average temperature yesterday: 63 °F

High & Low Weather Summary for the Past Weeks

 TemperatureHumidityPressure
High86 °F (Apr 16, 3:56 pm)100% (Apr 14, 7:00 am)30.26 "Hg (Apr 14, 7:00 am)
Low46 °F (Apr 24, 6:56 am)29% (Apr 24, 2:56 pm)29.54 "Hg (Apr 25, 6:56 pm)
Average70 °F76%30.02 "Hg
* Reported Apr 10 9:56 pm — Apr 25 9:56 pm, Shreveport, Weather by CustomWeather, © 2017

Note: Actual official high and low records may vary slightly from our data, if they occured in-between our weather recording intervals... More about our weather records

Advertising

Shreveport Weather History for the Previous 24 Hours

Scroll right to see more
 ConditionsComfort  
Time TempWeatherWind HumidityBarometerVisibility
9:56 pm
Tue, Apr 25
75 °FOvercast.14 mph76%29.57 "Hg10 mi
8:56 pm75 °FOvercast.18 mph76%29.55 "Hg10 mi
7:56 pm76 °FOvercast.13 mph72%29.54 "Hg10 mi
6:56 pm77 °FPartly sunny.16 mph69%29.54 "Hg10 mi
5:56 pm79 °FPartly sunny.22 mph62%29.55 "Hg10 mi
4:56 pm79 °FScattered clouds.18 mph62%29.56 "Hg10 mi
3:56 pm82 °FScattered clouds.18 mph56%29.58 "Hg10 mi
2:56 pm79 °FPartly sunny.21 mph60%29.61 "Hg10 mi
1:56 pm80 °FPartly sunny.20 mph58%29.62 "Hg10 mi
12:56 pm78 °FPartly sunny.17 mph60%29.65 "Hg10 mi
11:56 am78 °FPartly sunny.14 mph60%29.69 "Hg10 mi
11:22 am76 °FPartly sunny.12 mph62%29.70 "Hg10 mi
10:56 am74 °FPartly sunny.14 mph67%29.70 "Hg10 mi
9:56 am70 °FPassing clouds.12 mph73%29.70 "Hg10 mi
8:56 am65 °FPassing clouds.14 mph78%29.70 "Hg10 mi
7:56 am61 °FPassing clouds.10 mph83%29.69 "Hg10 mi
6:56 am56 °FPassing clouds.7 mph93%29.68 "Hg10 mi
5:56 am56 °FClear.7 mph90%29.69 "Hg10 mi
4:56 am54 °FClear.6 mph93%29.70 "Hg10 mi
3:56 am56 °FClear.5 mph87%29.70 "Hg10 mi
2:56 am58 °FPassing clouds.6 mph81%29.70 "Hg10 mi
1:56 am60 °FPassing clouds.7 mph69%29.71 "Hg10 mi
12:56 am58 °FPassing clouds.6 mph72%29.70 "Hg10 mi
11:56 pm
Mon, Apr 24
61 °FPassing clouds.6 mph60%29.72 "Hg10 mi
Weather by CustomWeather, © 2017

See weather overviewHow to use our weather pages